Location: La Oliva
(42.2466°N, 2.9955°E)
Time: 11:17:28
(UTC+00:00)

BREEZE-M DEB (TANK) - Pass Details

Date: 22 April 2021
Orbit: 351 x 16373 km, 49.4° (Epoch: 10 May)

Event Time Altitude Azimuth Distance (km) Brightness Sun altitude
Rises 19:51:06 0° 287° (WNW) 2,164 7.1 -13.2°
Reaches altitude 10° 19:52:56 10° 269° (W) 1,368 5.3 -13.5°
Maximum altitude 19:55:03 22° 212° (SSW) 1,043 3.7 -13.8°
Enters shadow 19:57:30 13° 165° (SSE) 1,842 4.6 -14.2°
